Change the Weather History Date:

Thursday, September 12, 2013

  Actual Average Record
Temperature  
Mean Temperature 66 °F 63 °F  
Max Temperature 78 °F 74 °F 94 °F (1952)
Min Temperature 53 °F 53 °F 35 °F (1955)
Degree Days  
Heating Degree Days 0 4  
Month to date heating degree days 8 31  
Since 1 July heating degree days 56 66  
Cooling Degree Days 1 2  
Month to date cooling degree days 55 35  
Year to date cooling degree days 595 564  
Growing Degree Days 16 (Base 50)    
Moisture  
Dew Point 60 °F    
Average Humidity 68    
Maximum Humidity 93    
Minimum Humidity 43    
Precipitation  
Precipitation T in 0.11 in 1.51 in (2008)
Month to date precipitation 2.12 1.36  
Year to date precipitation 26.67 22.28  
Sea Level Pressure  
Sea Level Pressure 29.94 in    
Wind  
Wind Speed 6 mph (NW)    
Max Wind Speed 21 mph    
Max Gust Speed 31 mph    
Visibility 10 miles    
Events      
T = Trace of Precipitation, MM = Missing Value Source: NWS Daily Summary

Daily Weather History Graph

Daily Weather History Graph

Search for Another Location

Airport or City:

Trip Planner

Search our weather history database for the weather conditions in past years. The results will help you decide how hot, cold, wet, or windy it might be!

Date:

Astronomy

Sep. 12, 2013 Rise Set
Actual Time 7:14 AM EDT 7:52 PM EDT
Civil Twilight 6:46 AM EDT 8:20 PM EDT
Nautical Twilight 6:13 AM EDT 8:53 PM EDT
Astronomical Twilight 5:38 AM EDT 9:28 PM EDT
Moon 2:49 PM EDT (9/12) No Moon Set
Length of Visible Light 13h 33m
Length of Day
12h 37m
Waxing Crescent, 50% of the Moon is Illuminated
Sep 12
Waxing Crescent
Sep 12
First Quarter
Sep 19
Full
Sep 26
Last Quarter
Oct 4
New

Hourly Weather History & Observations

Time (EDT) Temp. Dew Point Humidity Pressure Visibility Wind Dir Wind Speed Gust Speed Precip Events Conditions
12:56 AM 68.0 °F 66.0 °F 93% 29.95 in 10.0 mi WSW 4.6 mph - N/A   Clear
1:56 AM 68.0 °F 66.0 °F 93% 29.95 in 10.0 mi West 4.6 mph - N/A   Mostly Cloudy
2:56 AM 68.0 °F 66.0 °F 93% 29.94 in 10.0 mi WSW 6.9 mph - N/A   Overcast
3:56 AM 68.0 °F 66.0 °F 93% 29.93 in 10.0 mi WSW 5.8 mph - N/A   Mostly Cloudy
4:56 AM 68.0 °F 64.9 °F 90% 29.92 in 10.0 mi SW 5.8 mph - N/A   Partly Cloudy
5:56 AM 66.9 °F 64.9 °F 93% 29.93 in 10.0 mi WSW 5.8 mph - N/A   Clear
6:56 AM 68.0 °F 66.0 °F 93% 29.93 in 10.0 mi West 5.8 mph - 0.01 in   Clear
7:56 AM 68.0 °F 66.0 °F 93% 29.94 in 8.0 mi West 6.9 mph - N/A   Mostly Cloudy
8:26 AM 68.0 °F 66.2 °F 94% 29.95 in 8.0 mi Variable 5.8 mph - N/A   Mostly Cloudy
8:56 AM 66.9 °F 64.9 °F 93% 29.93 in 10.0 mi NW 5.8 mph - N/A   Overcast
9:21 AM 66.2 °F 64.4 °F 94% 29.95 in 10.0 mi NNW 5.8 mph - N/A   Overcast
9:56 AM 68.0 °F 64.9 °F 90% 29.94 in 10.0 mi North - - N/A   Mostly Cloudy
10:40 AM 69.8 °F 62.6 °F 78% 29.96 in 10.0 mi Variable 4.6 mph - N/A   Scattered Clouds
10:56 AM 69.1 °F 63.0 °F 81% 29.95 in 10.0 mi North 4.6 mph - N/A   Partly Cloudy
11:56 AM 72.0 °F 59.0 °F 64% 29.95 in 10.0 mi Variable 4.6 mph - N/A   Clear
12:56 PM 73.9 °F 55.9 °F 53% 29.94 in 10.0 mi WNW 9.2 mph - N/A   Clear
1:56 PM 77.0 °F 55.9 °F 48% 29.92 in 10.0 mi Variable 3.5 mph - N/A   Partly Cloudy
2:56 PM 77.0 °F 54.0 °F 45% 29.91 in 10.0 mi NNW 5.8 mph - N/A   Clear
4:56 PM 75.0 °F 55.0 °F 50% 29.88 in 10.0 mi WNW 6.9 mph - N/A   Scattered Clouds
5:56 PM 71.1 °F 55.9 °F 59% 29.89 in 10.0 mi North 16.1 mph 28.8 mph N/A   Scattered Clouds
6:56 PM 64.0 °F 54.0 °F 70% 29.92 in 10.0 mi North 9.2 mph 18.4 mph N/A   Mostly Cloudy
7:56 PM 61.0 °F 55.0 °F 81% 29.93 in 10.0 mi Variable 5.8 mph - 0.00 in   Overcast
8:56 PM 59.0 °F 55.0 °F 87% 29.96 in 10.0 mi North 4.6 mph - N/A   Clear
9:56 PM 57.0 °F 52.0 °F 83% 29.99 in 10.0 mi North 5.8 mph - N/A   Clear
10:56 PM 55.0 °F 48.9 °F 80% 29.99 in 10.0 mi North 4.6 mph - N/A   Clear
11:56 PM 55.0 °F 46.9 °F 74% 30.00 in 10.0 mi North 8.1 mph - N/A   Clear